Date String (YYYY-MM-DD hh:mm:ss) UTC,Instrument flags,absolute air pressure of the measurement (hPa),sample flow rate (lpm),inlet stack bypass flow (lpm),air temperature of the measurement (°C),ambient temperature measured by the external sensor (°C),aerosol sample conditioner tube jacket temperature (°C),OPC LED temperature (°C),internal box temperature (°C),relative humidity of the measurement (%),span deviation,mass concentration of particles derived from Lorenz-Mie calculation of OPC scattering (μg/m³),mass concentration of particles derived from Lorenz-Mie calculation of OPC scattering (μg/m³),mass concentration of particles derived from Lorenz-Mie calculation of OPC scattering (μg/m³)
DateTimeUTC,F1_M11,P_M11,Q1_M11,Q2_M11,T1_M11,T2_M11,T3_M11,T4_M11,T5_M11,U1_M11,ZSPAN_M11,X0_M11,X2_M11,X1_M11
2023-06-01 05:00:00,SystemResetWarning,0826.4,5.00,000.00,028.8,027.3,000.0,037.2,030.5,21.7,0000.0,0008.21,0003.74,0002.61
2023-06-01 05:01:00,SystemResetWarning,0826.4,5.00,000.00,028.8,027.3,000.0,037.2,030.5,22.1,0000.0,0007.51,0003.67,0002.58
2023-06-01 05:02:00,SystemResetWarning,0826.4,5.01,000.00,028.8,027.3,000.0,037.2,030.5,22.2,0000.0,0007.92,0003.66,0002.59
2023-06-01 05:03:00,SystemResetWarning,0826.3,5.00,000.00,028.8,027.3,000.0,037.2,030.5,22.3,0000.0,0008.52,0003.65,0002.57
2023-06-01 05:04:00,SystemResetWarning,0826.4,5.00,000.00,028.8,027.3,000.0,037.2,030.5,22.4,0000.0,0008.38,0003.59,0002.56
2023-06-01 05:05:00,SystemResetWarning,0826.4,5.00,000.00,028.8,027.3,000.0,037.2,030.4,22.5,0000.0,0008.41,0003.61,0002.56
2023-06-01 05:06:00,SystemResetWarning,0826.4,5.00,000.00,028.8,027.2,000.0,037.2,030.4,23.4,0000.0,0008.29,0003.57,0002.57
2023-06-01 05:07:00,SystemResetWarning,0826.4,5.00,000.00,028.8,027.2,000.0,037.2,030.4,23.9,0000.0,0008.32,0003.56,0002.57
2023-06-01 05:08:00,SystemResetWarning,0826.4,5.00,000.00,028.8,027.2,000.0,037.2,030.4,23.9,0000.0,0008.27,0003.54,0002.60
2023-06-01 05:09:00,SystemResetWarning,0826.4,4.99,000.00,028.8,027.1,000.0,037.2,030.3,23.9,0000.0,0008.20,0003.52,0002.60
2023-06-01 05:10:00,SystemResetWarning,0826.4,5.00,000.00,028.7,027.1,000.0,037.2,030.3,24.0,0000.0,0008.08,0003.50,0002.60
2023-06-01 05:11:00,SystemResetWarning,0826.4,5.00,000.00,028.7,027.0,000.0,037.2,030.3,23.8,0000.0,0008.09,0003.51,0002.59
2023-06-01 05:12:00,SystemResetWarning,0826.4,5.00,000.00,028.7,027.0,000.0,037.2,030.2,23.6,0000.0,0008.37,0003.57,0002.60
2023-06-01 05:13:00,SystemResetWarning,0826.4,5.00,000.00,028.7,027.0,000.0,037.1,030.2,23.4,0000.0,0007.92,0003.56,0002.62
2023-06-01 05:14:00,SystemResetWarning,0826.4,5.01,000.00,028.7,027.0,000.0,037.1,030.2,23.2,0000.0,0006.90,0003.56,0002.65
2023-06-01 05:15:00,SystemResetWarning,0826.4,5.00,000.00,028.6,027.0,000.0,037.1,030.2,23.2,0000.0,0006.88,0003.56,0002.67
2023-06-01 05:16:00,SystemResetWarning,0826.3,5.00,000.00,028.6,027.0,000.0,037.1,030.3,22.8,0000.0,0006.72,0003.52,0002.66
2023-06-01 05:17:00,SystemResetWarning,0826.3,5.00,000.00,028.6,027.0,000.0,037.1,030.3,22.7,0000.0,0006.86,0003.55,0002.64
2023-06-01 05:18:00,SystemResetWarning,0826.3,5.00,000.00,028.6,027.1,000.0,037.1,030.3,22.8,0000.0,0006.62,0003.52,0002.64
2023-06-01 05:19:00,SystemResetWarning,0826.2,5.00,000.00,028.7,027.1,000.0,037.1,030.3,22.8,0000.0,0006.53,0003.50,0002.62
2023-06-01 05:20:00,SystemResetWarning,0826.2,5.00,000.00,028.7,027.1,000.0,037.1,030.3,22.8,0000.0,0006.55,0003.50,0002.62
2023-06-01 05:21:00,SystemResetWarning,0826.2,5.00,000.00,028.7,027.2,000.0,037.1,030.3,22.7,0000.0,0006.73,0003.54,0002.62
2023-06-01 05:22:00,SystemResetWarning,0826.2,5.00,000.00,028.7,027.2,000.0,037.1,030.3,22.5,0000.0,0006.81,0003.52,0002.62
2023-06-01 05:23:00,SystemResetWarning,0826.2,5.00,000.00,028.7,027.2,000.0,037.1,030.4,22.5,0000.0,0006.70,0003.49,0002.62
2023-06-01 05:24:00,SystemResetWarning,0826.2,5.00,000.00,028.7,027.2,000.0,037.1,030.4,22.6,0000.0,0006.73,0003.50,0002.61
2023-06-01 05:25:00,SystemResetWarning,0826.2,5.00,000.00,028.7,027.2,000.0,037.1,030.4,22.6,0000.0,0006.94,0003.53,0002.61
2023-06-01 05:26:00,SystemResetWarning,0826.2,5.00,000.00,028.7,027.3,000.0,037.1,030.4,22.6,0000.0,0006.96,0003.53,0002.62
2023-06-01 05:27:00,SystemResetWarning,0826.2,5.00,000.00,028.7,027.3,000.0,037.1,030.4,22.8,0000.0,0007.02,0003.54,0002.62
2023-06-01 05:28:00,SystemResetWarning,0826.1,5.00,000.00,028.8,027.3,000.0,037.1,030.4,22.4,0000.0,0007.15,0003.56,0002.64
2023-06-01 05:29:00,SystemResetWarning,0826.1,5.00,000.00,028.8,027.3,000.0,037.1,030.4,21.9,0000.0,0007.23,0003.57,0002.64
2023-06-01 05:30:00,SystemResetWarning,0826.0,5.01,000.00,028.8,027.3,000.0,037.1,030.4,22.2,0000.0,0007.22,0003.58,0002.64
2023-06-01 05:31:00,SystemResetWarning,0826.0,5.00,000.00,028.8,027.3,000.0,037.1,030.4,22.2,0000.0,0007.27,0003.60,0002.64
2023-06-01 05:32:00,SystemResetWarning,0826.0,4.99,000.00,028.8,027.3,000.0,037.1,030.4,22.1,0000.0,0007.38,0003.64,0002.65
2023-06-01 05:33:00,SystemResetWarning,0826.0,5.01,000.00,028.8,027.3,000.0,037.1,030.5,22.4,0000.0,0007.50,0003.69,0002.67
2023-06-01 05:34:00,SystemResetWarning,0825.9,5.00,000.00,028.8,027.3,000.0,037.2,030.5,22.6,0000.0,0007.26,0003.69,0002.68
2023-06-01 05:35:00,SystemResetWarning,0825.9,4.99,000.00,028.8,027.3,000.0,037.2,030.5,22.7,0000.0,0007.15,0003.66,0002.68
2023-06-01 05:36:00,SystemResetWarning,0825.9,4.99,000.00,028.8,027.3,000.0,037.2,030.4,22.7,0000.0,0007.25,0003.65,0002.66
2023-06-01 05:37:00,SystemResetWarning,0825.9,5.00,000.00,028.8,027.3,000.0,037.2,030.5,21.7,0000.0,0007.27,0003.65,0002.65
2023-06-01 05:38:00,SystemResetWarning,0825.9,5.00,000.00,028.8,027.3,000.0,037.2,030.5,21.1,0000.0,0007.18,0003.62,0002.63
2023-06-01 05:39:00,SystemResetWarning,0825.9,5.00,000.00,028.8,027.3,000.0,037.2,030.5,21.6,0000.0,0006.99,0003.59,0002.62
2023-06-01 05:40:00,SystemResetWarning,0825.9,5.00,000.00,028.8,027.4,000.0,037.2,030.5,21.4,0000.0,0006.98,0003.59,0002.63
2023-06-01 05:41:00,SystemResetWarning,0825.9,5.00,000.00,028.8,027.4,000.0,037.2,030.5,21.1,0000.0,0006.97,0003.58,0002.64
2023-06-01 05:42:00,SystemResetWarning,0825.9,5.01,000.00,028.9,027.4,000.0,037.2,030.5,21.1,0000.0,0006.75,0003.53,0002.63
2023-06-01 05:43:00,SystemResetWarning,0825.8,5.00,000.00,028.9,027.4,000.0,037.2,030.5,21.0,0000.0,0006.58,0003.50,0002.62
2023-06-01 05:44:00,SystemResetWarning,0825.9,5.00,000.00,028.9,027.4,000.0,037.2,030.5,20.8,0000.0,0006.27,0003.44,0002.60
2023-06-01 05:45:00,SystemResetWarning,0825.9,5.00,000.00,028.9,027.4,000.0,037.2,030.5,20.7,0000.0,0006.31,0003.46,0002.60
2023-06-01 05:46:00,SystemResetWarning,0825.9,4.99,000.00,028.9,027.4,000.0,037.2,030.5,20.7,0000.0,0006.54,0003.50,0002.60
2023-06-01 05:47:00,SystemResetWarning,0825.9,4.99,000.00,028.9,027.4,000.0,037.2,030.5,20.7,0000.0,0006.37,0003.49,0002.61
2023-06-01 05:48:00,SystemResetWarning,0825.9,5.01,000.00,028.9,027.4,000.0,037.2,030.5,20.7,0000.0,0006.25,0003.47,0002.61
2023-06-01 05:49:00,SystemResetWarning,0825.9,5.00,000.00,028.9,027.4,000.0,037.2,030.5,20.8,0000.0,0006.31,0003.50,0002.64
2023-06-01 05:50:00,SystemResetWarning,0826.0,5.00,000.00,028.9,027.4,000.0,037.2,030.6,20.3,0000.0,0006.36,0003.51,0002.65
2023-06-01 05:51:00,SystemResetWarning,0826.0,5.01,000.00,028.9,027.4,000.0,037.3,030.6,19.9,0000.0,0006.16,0003.50,0002.67
2023-06-01 05:52:00,SystemResetWarning,0826.0,4.99,000.00,028.9,027.5,000.0,037.3,030.6,20.1,0000.0,0006.20,0003.52,0002.68
2023-06-01 05:53:00,SystemResetWarning,0826.0,4.99,000.00,028.9,027.5,000.0,037.3,030.6,20.0,0000.0,0006.42,0003.56,0002.69
2023-06-01 05:54:00,SystemResetWarning,0826.0,5.00,000.00,028.9,027.5,000.0,037.3,030.6,20.0,0000.0,0006.41,0003.54,0002.70
2023-06-01 05:55:00,SystemResetWarning,0826.0,4.99,000.00,028.9,027.5,000.0,037.3,030.6,20.1,0000.0,0006.67,0003.60,0002.72
2023-06-01 05:56:00,SystemResetWarning,0826.0,5.00,000.00,029.0,027.5,000.0,037.3,030.6,20.2,0000.0,0006.53,0003.59,0002.73
2023-06-01 05:57:00,SystemResetWarning,0826.0,5.00,000.00,029.0,027.5,000.0,037.3,030.6,20.3,0000.0,0006.50,0003.59,0002.74
2023-06-01 05:58:00,SystemResetWarning,0826.1,5.01,000.00,029.0,027.5,000.0,037.3,030.6,20.4,0000.0,0006.52,0003.60,0002.74
2023-06-01 05:59:00,SystemResetWarning,0826.1,5.00,000.00,029.0,027.5,000.0,037.3,030.6,20.9,0000.0,0006.62,0003.63,0002.75
